Probability
0 0 0 0 0 0 0 0 0 0 0 0 0 0 0 0 0 0 0 0 0 0 0 0 0 0 0 0 0 0 0 0 0 0 0 0 0 0 0 0 0 0 0
0 0 0 0 0 0 0 0 0 0 0 0 0 0 0 0 0 0 0 0 0 0 0 0 0 0 0 0 0 0 0 0 0 0 0 0 0 0 0 0 0 0 0
0 0 0 0 0 0 0 0 0 0 0 0 0 0 0 0 0 0 0 0 0 0 0 0 0 0 0 0 0 0 0 0 0 0 0 0 0 0 0 0 0 0 0
0 0 0 0 0 0 0 0 0 0 0 0 0 0 0 0 0 0 0 0 0 0 0 0 0 0 0 0 0 0 0 0 0 0 0 0 0 0 0 0 0 0 0
0 0 0 0 0 0 0 0 0 0 0 0 0 0 0 0 0 0 0 0 0 0 0 0 0 0 0 0 0 0 0 0 0 0 0 0 0 0 0 0 0 0 0
0 0 0 0 0 0 0 0 0 0 0 0 0 0 0 0 0 0 0 0 0 0 0 0 0 0 0 0 0 0 0 0 0 0 0 0 0 0 0 0 0 0 0
0 0 0 0 0 0 0 0 0 0 0 0 0 0 0 0 0 0 0 0 0 0 0 0 0 0 0 0 0 0 0 0 0 0 0 0 0 0 0 0 0 0 0
0 0 0 0 0 0 0 0 0 0 0 0 0 0 0 0 0 0 0 0 0 0 0 0 0 0 0 0 0 0 0 0 0 0 0 0 0 0 0 0 0 0 0
0 0 0 0 0 0 0 0 0 0 0 0 0 0 0 0 0 0 0 0 0 0 0 0 0 0 0 0 0 0 0 0 0 0 0 0 0 0 0 0 0 0 0
0 0 0 0 0 0 0 0 0 0 0 0 0 0 0 0 0 0 0 0 0 0 0 0 0 0 0 0 0 0 0 0 0 0 0 0 0 0 0 0 0 0 0
0 0 0 0 0 0 0 0 0 0 0 0 0 0 0 0 0 0 0 0 0 0 0 0 0 0 0 0 0 0 0 0 0 0 0 0 0 0 0 0 0 0 0
0 0 0 0 0 0 0 0 0 0 0 0 0 0 0 0 0 0 0 0 0 0 0 0 0 0 0 0 0 0 0 0 0 0 0 0 0 0 0 0 0 0 0
0 0 0 0 0 0 0 0 0 0 0 0 0 0 0 0 0 0 0 0 0 0 0 0 0 0 0 0 0 0 0 0 0 0 0 0 0 0 0 0 0 0 0
0 0 0 0 0 0 0 0 0 0 0 0 0 0 0 0 0 0 0 0 0 0 0 0 0 0 0 0 0 0 0 0 0 0 0 0 0 0 0 0 0 0 0
0 0 0 0 0 0 0 0 0 0 0 0 0 0 0 0 0 0 0 0 0 0 0 0 0 0 0 0 0 0 0 0 0 0 0 0 0 0 0 0 0 0 0
0 0 0 0 0 0 0 0 0 0 0 0 0 0 0 0 0 0 0 0 0 0 0 0 0 0 0 0 0 0 0 0 0 0 0 0 0 0 0 0 0 0 0
0 0 0 0 0 0 0 0 0 0 0 0 0 0 0 0 0 0 0 0 0 0 0 0 0 0 0 0 0 0 0 0 0 0 0 0 0 0 0 0 0 0 0
0 0 0 0 0 0 0 0 0 0 0 0 0 0 0 0 0 0 0 0 0 0 0 0 0 0 0 0 0 0 0 0 0 0 0 0 0 0 0 0 0 0 0
0 0 0 0 0 0 0 0 0 0 0 0 0 0 0 0 0 0 0 0 0 0 0 0 0 0 0 0 0 0 0 0 0 0 0 0 0 0 0 0 0 0 0
0 0 0 0 0 0 0 0 0 0 0 0 0 0 0 0 0 0 0 0 0 0 0 0 0 0 0 0 0 0 0 0 0 0 0 0 0 0 0 0 0 0 0
0 0 0 0 0 0 0 0 0 0 0 0 0 0 0 0 0 0 0 0 0 0 0 0 0 0 0 0 0 0 0 0 0 0 0 0 0 0 0 0 0 0 0
0 0 0 0 0 0 0 0 0 0 0 0 0 0 0 0 0 0 0 0 0 0 0 0 0 0 0 0 0 0 0 0 0 0 0 0 0 0 0 0 0 0 0
0 0 0 0 0 0 0 0 0 0 0 0 0 0 0 0 0 0 0 0 0 0 0 0 0 0 0 0 0 0 0 0 0 0 0 0 0 0 0 0 0 0 0
0 0 0 0 0 0 0 0 0 0 0 0 0 0 0 0 0 0 0 0 0 0 0 0 0 0 0 0 0 0 0 0 0 0 0 0 0 0 0 0 0 0 0
0 0 0 0 0 0 0 0 0 0 0 0 0 0 0 0 0 0 0 0 0 0 0 0 0 0 0 0 0 0 0 0 0 0 0 0 0 0 0 0 0 0 0
0 0 0 0 0 0 0 0 0 0 0 0 0 0 0 0 0 0 0 0 0 0 0 0 0 0 0 0 0 0 0 0 0 0 0 0 0 0 0 0 0 0 0
Wind_Speed
11 14 15 14 13 14 14 13 11 7 3 2 2 1 1 1 1 2 3 5 5 6 5 4 5 6 7 7 8 6 7 5 5 5 2 0 1 3 3 3 3 3 3
12 15 15 14 14 14 13 13 13 11 7 3 2 2 1 1 1 2 2 3 4 5 5 5 4 5 5 7 8 7 6 4 6 6 4 2 2 4 4 4 4 5 4
13 12 13 13 13 14 14 13 14 13 11 8 4 4 4 3 3 2 1 1 3 3 4 5 4 5 6 6 8 9 10 7 6 5 7 7 7 3 3 5 5 5 4
11 11 11 12 13 12 11 12 14 14 13 10 7 5 3 2 2 1 0 1 2 3 3 4 5 5 5 6 7 8 7 6 7 5 4 4 6 6 3 3 4 6 6
10 10 10 10 10 10 10 10 12 13 13 12 11 8 5 4 3 3 3 1 1 3 3 3 4 5 5 6 7 7 8 6 6 6 4 3 2 3 6 4 4 5 6
8 8 8 7 8 9 9 10 11 12 12 12 12 11 9 7 6 5 3 2 1 2 4 4 4 5 4 6 7 7 9 8 7 6 5 5 6 6 5 5 4 5 6
7 6 7 7 8 9 9 9 11 12 12 11 11 11 10 9 8 6 5 4 2 2 4 5 5 5 5 6 6 7 8 9 10 8 7 6 6 5 5 5 4 4 3
6 6 6 6 6 7 8 9 10 10 10 10 9 9 10 7 6 7 6 6 5 4 4 4 6 6 6 6 6 6 7 7 9 11 9 6 7 5 5 6 6 4 3
5 5 5 5 5 6 7 8 8 8 9 9 8 8 8 8 8 8 7 6 7 7 8 6 4 5 7 7 6 5 7 7 8 9 10 8 6 7 6 5 6 9 8
4 4 4 4 5 5 5 6 6 7 7 7 7 6 6 7 7 6 8 8 8 8 9 9 8 6 6 7 7 6 7 8 8 7 9 10 7 6 6 7 6 6 8
3 3 3 4 4 5 5 4 4 5 5 5 5 5 5 6 6 6 7 7 7 8 8 8 8 8 7 6 6 7 8 9 9 9 10 11 9 8 7 7 7 6 6
2 3 3 3 4 3 3 3 3 3 3 4 5 5 5 5 5 6 6 7 7 8 8 8 8 8 8 7 7 8 9 10 10 10 11 12 9 12 9 8 9 8 7
1 1 2 2 2 2 2 2 1 1 2 3 4 4 4 5 5 6 6 7 7 7 7 7 8 8 8 8 8 8 9 10 11 11 12 12 11 13 10 10 10 8 7
2 2 1 1 1 1 2 3 3 2 2 3 4 5 5 5 5 6 6 6 7 7 8 8 8 8 8 9 9 9 9 10 11 11 12 12 13 14 12 11 12 9 9
3 2 2 2 3 3 3 4 4 4 3 4 5 6 6 6 6 6 7 7 7 8 8 9 9 9 8 8 9 9 9 10 12 12 12 13 14 17 15 12 11 11 11
2 2 2 4 5 5 5 5 5 5 4 5 7 7 7 8 8 8 8 8 8 8 8 9 10 11 9 16 21 16 10 10 12 13 13 13 14 15 22 24 21 18 17
3 3 4 5 5 5 5 5 5 4 5 6 8 8 9 10 10 9 9 9 9 9 11 11 11 12 15 23 24 23 14 12 13 14 13 12 12 14 14 19 25 25 29
3 4 4 4 4 3 2 2 3 5 6 8 9 9 10 11 11 11 11 10 9 10 12 13 13 15 19 26 27 26 17 14 15 15 15 16 15 14 15 13 16 18 19
4 4 4 4 3 3 3 3 5 6 7 8 8 8 8 9 10 12 13 11 11 12 13 14 15 16 20 28 30 30 13 14 17 16 16 16 17 22 26 19 18 19 19
4 3 2 3 3 4 4 5 6 7 7 8 9 9 9 10 12 13 14 13 13 15 17 18 17 17 19 29 35 34 14 15 16 15 15 17 20 26 28 20 18 21 19
1 3 3 3 4 5 6 7 7 8 8 10 11 12 11 12 13 14 14 14 16 18 19 21 21 20 22 29 37 37 19 15 16 14 14 14 25 28 29 27 20 24 18
3 4 4 4 4 5 6 8 9 10 11 11 13 12 12 12 12 14 15 15 16 18 19 19 21 18 19 23 28 35 33 29 19 16 14 15 26 28 29 23 24 30 25
2 3 4 5 5 4 5 8 11 12 12 11 12 12 13 11 11 13 15 14 13 14 16 16 17 17 15 17 29 32 34 35 23 16 24 26 30 29 23 26 29 22 15
2 3 4 6 6 5 5 5 10 11 9 11 13 13 13 13 12 11 12 12 13 14 15 16 17 17 16 14 14 14 17 22 21 17 16 24 29 26 22 17 19 15 13
3 3 5 7 8 7 7 7 8 8 10 12 14 14 13 13 12 12 12 15 14 17 19 16 16 18 18 18 28 24 16 14 16 18 13 11 10 11 11 12 12 12 13
3 5 6 7 8 8 9 8 7 8 11 13 13 12 12 12 13 13 14 22 26 31 35 34 32 24 30 37 37 37 37 37 35 26 16 14 12 11 10 10 10 11 13
Wind_Direction
58 46 38 30 26 23 20 16 12 14 64 93 116 141 201 195 176 156 154 163 169 181 183 175 177 172 176 181 175 166 165 153 139 108 102 17 190 209 203 185 162 171 166
53 43 37 30 27 23 20 21 16 13 26 51 77 85 71 82 136 125 130 151 164 177 185 185 185 181 180 187 186 171 163 160 164 142 133 180 269 258 211 192 187 185 174
55 43 36 31 27 25 22 23 19 19 19 26 41 50 41 25 20 33 88 150 163 180 192 198 193 188 188 201 202 190 177 173 192 186 156 162 201 206 222 211 194 186 182
56 48 40 34 30 23 20 27 25 23 18 20 30 40 41 23 353 348 143 162 179 198 208 212 213 201 197 208 213 207 205 173 183 221 222 173 151 153 185 239 216 198 194
59 52 44 38 32 24 23 26 30 29 22 21 24 27 24 12 2 8 17 25 210 214 225 230 230 225 211 213 218 213 215 211 193 194 185 189 192 162 147 186 207 216 213
63 57 50 42 35 28 29 28 31 31 25 25 24 23 18 9 5 1 350 327 270 229 224 237 241 242 234 221 221 219 216 223 224 214 200 174 174 189 170 162 175 202 213
69 57 46 41 36 29 29 32 31 29 23 24 24 20 14 10 11 3 350 338 314 265 227 219 228 240 246 241 227 223 222 221 229 228 226 223 212 178 172 155 156 169 189
80 69 57 50 44 36 31 32 32 27 21 21 18 18 16 12 7 2 358 350 339 322 300 240 224 228 240 247 241 233 229 225 229 237 238 234 230 220 200 171 151 152 188
84 76 66 56 47 43 39 35 33 27 21 17 11 15 14 10 6 3 2 356 348 341 338 326 279 243 236 240 245 243 236 231 231 235 240 243 238 233 228 208 177 169 187
97 86 74 66 56 49 46 43 38 27 18 13 8 8 8 4 1 0 0 354 346 342 338 335 327 301 264 243 240 245 242 239 236 232 237 242 239 239 233 225 218 198 195
99 87 75 67 60 47 43 43 38 27 10 4 355 354 357 356 354 354 351 345 340 338 336 330 325 317 303 275 252 245 244 244 243 238 239 241 236 238 233 228 225 219 199
99 85 76 64 57 41 27 31 26 25 360 344 337 336 343 345 343 341 337 333 331 329 327 325 323 316 309 296 275 260 250 247 246 243 242 244 237 238 231 227 227 224 213
162 120 92 70 57 24 350 348 345 337 320 319 317 317 322 325 321 321 321 321 319 316 315 316 315 311 307 299 286 272 262 253 250 245 244 245 238 242 233 228 228 224 219
199 199 158 59 350 320 314 315 309 290 288 300 301 298 295 295 294 295 297 299 301 301 303 302 299 295 294 291 287 281 273 267 260 252 248 244 240 243 235 232 229 219 216
234 226 200 241 269 276 280 286 291 292 291 295 294 288 286 286 284 283 283 285 286 286 287 290 290 288 284 280 282 279 273 271 269 263 256 251 246 244 238 235 227 216 219
287 273 245 248 249 250 255 262 269 273 276 281 282 284 288 287 284 282 282 284 284 283 284 283 282 282 280 286 288 285 274 270 269 268 263 256 251 248 247 244 235 221 220
296 291 277 265 257 246 245 257 265 276 282 280 281 284 284 283 281 280 279 280 282 283 285 283 279 279 279 285 286 285 280 271 268 266 264 260 252 246 247 249 247 239 232
292 291 287 288 285 286 302 309 299 289 279 276 275 276 277 279 282 281 281 282 284 285 286 287 285 283 280 283 284 285 280 271 265 261 259 259 257 247 243 241 242 242 240
278 270 273 286 317 353 1 335 306 292 285 281 283 288 292 293 294 291 290 291 291 288 285 284 282 280 281 282 284 283 275 269 266 262 257 254 256 255 250 245 243 243 243
271 280 316 356 10 6 359 330 309 304 301 309 315 318 319 316 310 304 302 300 295 290 290 286 284 282 281 282 283 281 272 266 264 261 256 249 249 254 252 245 241 242 240
316 24 22 16 13 9 355 325 315 314 324 329 326 324 326 320 311 306 303 301 296 292 288 286 284 280 278 279 280 278 271 261 261 259 255 251 254 255 254 248 242 243 238
43 34 10 353 3 5 352 325 318 325 329 328 323 317 311 306 303 298 296 294 291 288 285 283 282 278 277 278 278 278 275 270 261 254 252 250 256 258 258 255 246 245 241
40 36 9 335 338 2 359 324 321 326 325 320 310 305 301 296 293 291 293 292 288 285 286 285 285 286 285 286 289 290 288 284 276 264 257 255 256 258 259 257 253 245 234
34 19 348 321 319 340 339 321 320 322 315 308 306 305 303 299 294 290 290 289 288 286 285 285 285 286 285 285 287 286 289 290 288 286 276 269 265 262 255 249 249 237 226
8 351 325 310 312 323 319 316 314 314 309 306 305 304 300 298 296 292 286 287 278 278 284 281 278 281 281 277 279 278 276 277 276 282 279 266 254 249 246 244 235 226 218
342 318 308 306 309 312 309 310 308 305 305 307 306 304 302 299 297 296 294 291 292 293 292 290 288 286 285 289 287 284 281 279 276 275 268 264 254 248 245 241 232 221 216